Regional Weather Roundup
Issued by NWS Newport/Morehead, NC

Current Version | Previous Version | Graphics & Text | Print | Product List | Glossary On
Versions: 1 2 3 4 5 6 7 8 9 10 11 12 13 14 15 16 17 18 19 20 21 22 23 24 25 26 27 28 29 30 31 32 33 34 35 36 37 38 39 40 41 42 43 44 45 46 47 48 49 50
000 ASUS42 KMHX 060725 RWRMHX WEATHER ROUNDUP FOR EASTERN NORTH CAROLINA NATIONAL WEATHER SERVICE NEWPORT/MOREHEAD CITY NC 300 AM EDT MON JUL 06 2015 NOTE: "FAIR" INDICATES FEW OR NO CLOUDS BELOW 12,000 FEET WITH NO SIGNIFICANT WEATHER AND/OR OBSTRUCTIONS TO VISIBILITY NCZ015>017-031-032-045>047-102-103-060800- NORTH COAST CITY SKY/WX TMP DP RH WIND PRES REMARKS EDENTON MOCLDY 73 70 91 E5 30.12S ELIZABETH CITY CLOUDY 74 70 87 NE5 30.12S FOG KITTY HAWK PTSUNNY 78 74 87 SW5 30.11R MANTEO PTCLDY 77 75 93 SW8 30.12S $$ NCZ045>047-081-094-103-104-060800- CENTRAL COAST CITY SKY/WX TMP DP RH WIND PRES REMARKS FRISCO PTCLDY 76 75 97 SW7 30.13F SWANQUARTER N/A 79 N/A N/A SW8G16 30.09S $$ NCZ095-097-098-100-101-060800- SOUTHERN COAST CITY SKY/WX TMP DP RH WIND PRES REMARKS BEAUFORT PTCLDY 79 76 90 S10 30.13S CEDAR ISLAND N/A 77 N/A N/A S6 30.18R JACKSONVILLE CLEAR 76 73 91 S3 30.11F PINEY ISLAND CLOUDY N/A N/A N/A S7 30.13R WILMINGTON PTCLDY 78 75 90 S6 30.12S $$ NCZ011>013-027>030-043-044-078>080-089-090>093-098-060800- COASTAL PLAIN CITY SKY/WX TMP DP RH WIND PRES REMARKS AHOSKIE MOCLDY N/A N/A N/A CALM 30.11F CLINTON PTCLDY 74 74 98 S5 30.11S ELIZABETHTOWN MOCLDY 74 74 99 CALM 30.10F GOLDSBORO PTCLDY 75 73 93 E3 30.09 GREENVILLE PTCLDY 73 73 100 SE3 30.12F HAVELOCK PTCLDY 77 74 90 S5 30.13S KENANSVILLE PTCLDY 73 72 95 CALM 30.12S KINSTON PTCLDY 75 72 89 CALM 30.12S NEW BERN PTCLDY 76 73 91 S5 30.13S RICHLANDS CLEAR 73 68 83 S5 30.12S ROCKY MOUNT PTCLDY 71 70 96 CALM 30.11S WASHINGTON MOCLDY 75 72 91 CALM 30.12S WHITEVILLE MOCLDY 76 73 88 S3 30.10F $$ AMZ130-135-150-152-154-156-158-170-250-252-270-ANZ085-086-088-633-658-670-060800- MARINE OBSERVATIONS STATION/POSITION TIME TEMP WIND PRES WAVE SWELL AIR SEA DIR/SP/G HT/PER HT/PER (UTC) (F) (DEG/KT/KT) (MB) (FT/S) (FT/S) CHESAPEAKE LIGHT 0700 76 40/ 6/ 6 1020.1 64 E VA BEACH 0650 78 77 210/ 8/ 10 1019.4 3/ 8 2/ 8 DUCK 0700 79 77 230/ 10/ 11 N/A 2 E DUCK 0611 78 N/A 2/14 2/14 OREGON INLET 0700 80 83 230/ 13/ 16 1019.6 13E OREGON INLT 0700 78 N/A 3/13 2/13 HATTERAS CG 0700 78 80 210/ 7/ 10 1019.9 DIAMOND BUOY 0650 80 81 230/ 12/ 14 1020.1 3/ 9 2/ 9 CAPE LOOKOUT 0700 79 210/ 8/ 11 1020.2 BEAUFORT LAB 0700 80 81 210/ 10/ 13 1019.6 30 SE NEW RVR IN NOT AVBL 27 SE WRIGHTSVLE 0700 80 200/ 12/ 14 N/A 5 SE WRIGHTSVLE 0608 80 78 220/ 10/ 12 1020.1 225 S CAPE HAT 0650 79 80 230/ 6/ 6 1022.5 3/ 8 3/ 8 41 SE CHARLESTON 0650 81 82 220/ 14/ 16 1019.2 3/ 8 2/ 8 $$

USA.gov is the U.S. government's official web portal to all federal, state and local government web resources and services.